MSC Sinfonia — H8XH — position and weather

sailwx.info

Track history (hours):
 
Tides and Currents Weather Stations Pressure Air Temp Water Temp Dewpoint Dewpoint Depression Visibility Wind Speed Wind Dir Waves Ship Positions

MSC Sinfonia

Last reported at 2014-Jul-30 00:33 UTC. Time now 2014-Jul-30 01:03 UTC.
Position N 42°28' E 003°53'.

Length 251 m; draft 6.8 m.

Type: Passenger vessel. MMSI: 356715971.

Date/timePositionNaut miles runAvg speedWind from/ knotsBaromVisibWave heightAir tempDewpointWater temp
2014-Jul-30 00:33N 42°28' E 003°53'1818.0
2014-Jul-29 23:33N 42°44' E 004°03'1414.3
2014-Jul-29 22:33N 42°54' E 004°18'1615.9
2014-Jul-29 21:33N 42°55' E 004°39'1816.9
2014-Jul-29 20:30N 42°56' E 005°04'2216.6
2014-Jul-29 19:09N 42°56' E 005°34'1016.4
2014-Jul-29 18:33N 42°56' E 005°48'1716.2
2014-Jul-29 17:32N 42°56' E 006°10'1716.4
2014-Jul-29 16:31N 43°00' E 006°32'1717.4
2014-Jul-29 15:34N 43°14' E 006°46'1817.3
2014-Jul-29 14:32N 43°28' E 006°59'4 3.4
2014-Jul-29 13:19N 43°32' E 007°01'0 0.0
2014-Jul-29 12:19N 43°32' E 007°01'0 0.0
2014-Jul-29 10:13N 43°32' E 007°01'0 0.0
2014-Jul-29 09:07N 43°32' E 007°01'0 0.1
2014-Jul-29 06:13N 43°32' E 007°01'0 0.0
2014-Jul-29 05:31N 43°32' E 007°01'4 3.9
2014-Jul-29 04:33N 43°29' E 007°03'7 6.9
2014-Jul-29 03:33N 43°29' E 007°12'8 8.1
2014-Jul-29 02:33N 43°31' E 007°23'49 9.3
2014-Jul-28 21:17N 43°49' E 008°26'811.2
2014-Jul-28 20:33N 43°56' E 008°33'1110.9
2014-Jul-28 19:33N 44°04' E 008°42'1110.9
2014-Jul-28 18:33N 44°13' E 008°51'1010.3
2014-Jul-28 17:33N 44°22' E 008°57'2 2.0
2014-Jul-28 16:17N 44°25' E 008°55'0 0.0
2014-Jul-28 15:32N 44°25' E 008°55'0 0.0
2014-Jul-28 14:26N 44°25' E 008°55'0 0.0
2014-Jul-28 13:05N 44°25' E 008°55'0 0.0
2014-Jul-28 12:05N 44°25' E 008°55'0 0.0
2014-Jul-28 11:32N 44°25' E 008°55'0 0.0
2014-Jul-28 10:32N 44°25' E 008°55'0 0.0
2014-Jul-28 09:11N 44°25' E 008°55'0 0.0
2014-Jul-28 08:23N 44°25' E 008°55'0 0.3
2014-Jul-28 07:17N 44°24' E 008°55'6 8.0
2014-Jul-28 06:33N 44°19' E 008°59'1919.5
2014-Jul-28 05:33N 44°02' E 009°12'2019.8
2014-Jul-28 04:33N 43°45' E 009°25'2019.7
2014-Jul-28 03:34N 43°27' E 009°38'2019.5
2014-Jul-28 02:33N 43°12' E 009°54'1919.0
2014-Jul-28 01:33N 42°54' E 010°01'1818.3
2014-Jul-28 00:33N 42°37' E 010°12'2019.8
2014-Jul-27 23:32N 42°24' E 010°32'1919.9
2014-Jul-27 22:33N 42°10' E 010°52'15218.7
2014-Jul-27 14:27N 40°40' E 013°34'1718.9
2014-Jul-27 13:34N 40°35' E 013°55'1919.1
2014-Jul-27 12:33N 40°31' E 014°20'0 0.0
2014-Jul-27 02:31N 40°31' E 014°19'1717.1
2014-Jul-27 01:33N 40°32' E 013°57'1717.2
2014-Jul-27 00:33N 40°35' E 013°35'31510.8
2014-Jul-25 19:23N 40°39' E 006°40'134 7.7
2014-Jul-25 02:06N 39°35' E 004°06'712.4
2014-Jul-25 01:33N 39°31' E 003°59'1312.4
2014-Jul-25 00:32N 39°22' E 003°47'1212.5
2014-Jul-24 23:34N 39°14' E 003°35'1312.5
2014-Jul-24 22:33N 39°06' E 003°23'1212.5
2014-Jul-24 21:34N 38°58' E 003°11'1312.6
2014-Jul-24 20:33N 38°54' E 002°56'1312.9
2014-Jul-24 19:33N 38°54' E 002°39'1313.0
2014-Jul-24 18:33N 38°54' E 002°23'1312.8
2014-Jul-24 17:33N 38°54' E 002°06'1312.8
2014-Jul-24 16:33N 38°54' E 001°50'1312.7
2014-Jul-24 15:33N 38°54' E 001°33'5 0.2
2014-Jul-23 17:25N 38°54' E 001°27'0 0.0
2014-Jul-23 16:21N 38°54' E 001°27'4 4.7
2014-Jul-23 15:33N 38°54' E 001°32'1312.6
2014-Jul-23 14:32N 39°03' E 001°44'1312.8
2014-Jul-23 13:33N 39°14' E 001°51'1413.6
2014-Jul-23 12:31N 39°27' E 001°59'1111.8
2014-Jul-23 11:33N 39°37' E 002°05'1413.4
2014-Jul-23 10:32N 39°46' E 002°18'1111.7
2014-Jul-23 09:33N 39°55' E 002°28'1212.3
2014-Jul-23 08:33N 40°04' E 002°40'1212.4
2014-Jul-23 07:33N 40°12' E 002°51'1312.7
2014-Jul-23 06:33N 40°21' E 003°03'1312.9
2014-Jul-23 05:33N 40°31' E 003°14'1313.0
2014-Jul-23 04:32N 40°40' E 003°27'1612.8
2014-Jul-23 03:18N 40°51' E 003°42'1413.7
2014-Jul-23 02:18N 41°01' E 003°55'1415.6
2014-Jul-23 01:26N 41°10' E 004°07'1312.7
2014-Jul-23 00:25N 41°19' E 004°20'1515.0
2014-Jul-22 23:27N 41°30' E 004°33'1717.3
2014-Jul-22 22:27N 41°41' E 004°50'5516.9
2014-Jul-22 19:11N 42°21' E 005°42'1116.7
2014-Jul-22 18:33N 42°28' E 005°52'1716.7
2014-Jul-22 17:33N 42°40' E 006°08'1716.5
2014-Jul-22 16:33N 42°52' E 006°24'1817.7
2014-Jul-22 15:33N 43°05' E 006°40'1818.4
2014-Jul-22 14:33N 43°21' E 006°53'1312.4
2014-Jul-22 13:33N 43°32' E 007°01'0 0.0
2014-Jul-22 12:33N 43°32' E 007°01'0 0.0
2014-Jul-22 11:33N 43°32' E 007°01'0 0.0
2014-Jul-22 10:33N 43°32' E 007°01'0 0.0
2014-Jul-22 09:21N 43°32' E 007°01'0 0.0
2014-Jul-22 08:33N 43°32' E 007°01'0 0.0
2014-Jul-22 07:33N 43°32' E 007°01'0 0.0
2014-Jul-22 06:33N 43°32' E 007°01'0 0.0
2014-Jul-22 05:33N 43°32' E 007°01'4 3.9
2014-Jul-22 04:33N 43°28' E 007°03'10 9.9
2014-Jul-22 03:33N 43°30' E 007°17'10 9.8
2014-Jul-22 02:33N 43°32' E 007°30'55 8.8
2014-Jul-21 20:18N 43°59' E 008°36'0 9.6
2014-Jul-21 20:17N 43°59' E 008°36'810.4
2014-Jul-21 19:34N 44°05' E 008°42'1010.1
2014-Jul-21 18:34N 44°13' E 008°51'9 9.3
2014-Jul-21 17:33N 44°21' E 008°57'4 3.2
2014-Jul-21 16:18N 44°25' E 008°55'0 0.0
2014-Jul-21 15:30N 44°25' E 008°55'0 0.0
2014-Jul-21 14:33N 44°25' E 008°55'0 0.0
2014-Jul-21 13:21N 44°25' E 008°55'0 0.0
2014-Jul-21 11:33N 44°25' E 008°55'0 0.0
2014-Jul-21 10:09N 44°25' E 008°55'0 0.0
2014-Jul-21 09:33N 44°25' E 008°55'0 0.0
2014-Jul-21 07:30N 44°25' E 008°55'3 2.7
2014-Jul-21 06:33N 44°23' E 008°57'1616.2
2014-Jul-21 05:33N 44°08' E 009°07'1919.3
2014-Jul-21 04:33N 43°51' E 009°20'2019.7
2014-Jul-21 03:33N 43°34' E 009°33'1919.3
2014-Jul-21 02:34N 43°18' E 009°48'10519.3
2014-Jul-20 21:07N 41°55' E 011°15'1120.4
2014-Jul-20 20:33N 41°47' E 011°27'2120.3
2014-Jul-20 19:32N 41°33' E 011°47'1919.6
2014-Jul-20 18:33N 41°20' E 012°06'2219.4
2014-Jul-20 17:25N 41°05' E 012°28'1719.7
2014-Jul-20 16:32N 40°53' E 012°45'1919.3
2014-Jul-20 15:33N 40°46' E 013°07'1919.4
2014-Jul-20 14:33N 40°40' E 013°32'2019.7
2014-Jul-20 13:33N 40°34' E 013°57'1919.4
2014-Jul-20 12:33N 40°31' E 014°22'4 0.4
2014-Jul-20 03:22N 40°33' E 014°27'1519.1
2014-Jul-20 02:33N 40°31' E 014°07'1919.1
2014-Jul-20 01:33N 40°34' E 013°42'  
Track history (hours):
 
Tides and Currents Weather Stations Pressure Air Temp Water Temp Dewpoint Dewpoint Depression Visibility Wind Speed Wind Dir Waves Ship Positions

MSC Sinfonia

Last reported at 2014-Jul-30 00:33 UTC. Time now 2014-Jul-30 01:03 UTC.
Position N 42°28' E 003°53'.

Length 251 m; draft 6.8 m.

Type: Passenger vessel. MMSI: 356715971.

Date/timePositionNaut miles runAvg speedWind from/ knotsBaromVisibWave heightAir tempDewpointWater temp
2014-Jul-30 00:33N 42°28' E 003°53'1818.0
2014-Jul-29 23:33N 42°44' E 004°03'1414.3
2014-Jul-29 22:33N 42°54' E 004°18'1615.9
2014-Jul-29 21:33N 42°55' E 004°39'1816.9
2014-Jul-29 20:30N 42°56' E 005°04'2216.6
2014-Jul-29 19:09N 42°56' E 005°34'1016.4
2014-Jul-29 18:33N 42°56' E 005°48'1716.2
2014-Jul-29 17:32N 42°56' E 006°10'1716.4
2014-Jul-29 16:31N 43°00' E 006°32'1717.4
2014-Jul-29 15:34N 43°14' E 006°46'1817.3
2014-Jul-29 14:32N 43°28' E 006°59'4 3.4
2014-Jul-29 13:19N 43°32' E 007°01'0 0.0
2014-Jul-29 12:19N 43°32' E 007°01'0 0.0
2014-Jul-29 10:13N 43°32' E 007°01'0 0.0
2014-Jul-29 09:07N 43°32' E 007°01'0 0.1
2014-Jul-29 06:13N 43°32' E 007°01'0 0.0
2014-Jul-29 05:31N 43°32' E 007°01'4 3.9
2014-Jul-29 04:33N 43°29' E 007°03'7 6.9
2014-Jul-29 03:33N 43°29' E 007°12'8 8.1
2014-Jul-29 02:33N 43°31' E 007°23'49 9.3
2014-Jul-28 21:17N 43°49' E 008°26'811.2
2014-Jul-28 20:33N 43°56' E 008°33'1110.9
2014-Jul-28 19:33N 44°04' E 008°42'1110.9
2014-Jul-28 18:33N 44°13' E 008°51'1010.3
2014-Jul-28 17:33N 44°22' E 008°57'2 2.0
2014-Jul-28 16:17N 44°25' E 008°55'0 0.0
2014-Jul-28 15:32N 44°25' E 008°55'0 0.0
2014-Jul-28 14:26N 44°25' E 008°55'0 0.0
2014-Jul-28 13:05N 44°25' E 008°55'0 0.0
2014-Jul-28 12:05N 44°25' E 008°55'0 0.0
2014-Jul-28 11:32N 44°25' E 008°55'0 0.0
2014-Jul-28 10:32N 44°25' E 008°55'0 0.0
2014-Jul-28 09:11N 44°25' E 008°55'0 0.0
2014-Jul-28 08:23N 44°25' E 008°55'0 0.3
2014-Jul-28 07:17N 44°24' E 008°55'6 8.0
2014-Jul-28 06:33N 44°19' E 008°59'1919.5
2014-Jul-28 05:33N 44°02' E 009°12'2019.8
2014-Jul-28 04:33N 43°45' E 009°25'2019.7
2014-Jul-28 03:34N 43°27' E 009°38'2019.5
2014-Jul-28 02:33N 43°12' E 009°54'1919.0
2014-Jul-28 01:33N 42°54' E 010°01'1818.3
2014-Jul-28 00:33N 42°37' E 010°12'2019.8
2014-Jul-27 23:32N 42°24' E 010°32'1919.9
2014-Jul-27 22:33N 42°10' E 010°52'15218.7
2014-Jul-27 14:27N 40°40' E 013°34'1718.9
2014-Jul-27 13:34N 40°35' E 013°55'1919.1
2014-Jul-27 12:33N 40°31' E 014°20'0 0.0
2014-Jul-27 02:31N 40°31' E 014°19'1717.1
2014-Jul-27 01:33N 40°32' E 013°57'1717.2
2014-Jul-27 00:33N 40°35' E 013°35'31510.8
2014-Jul-25 19:23N 40°39' E 006°40'134 7.7
2014-Jul-25 02:06N 39°35' E 004°06'712.4
2014-Jul-25 01:33N 39°31' E 003°59'1312.4
2014-Jul-25 00:32N 39°22' E 003°47'1212.5
2014-Jul-24 23:34N 39°14' E 003°35'1312.5
2014-Jul-24 22:33N 39°06' E 003°23'1212.5
2014-Jul-24 21:34N 38°58' E 003°11'1312.6
2014-Jul-24 20:33N 38°54' E 002°56'1312.9
2014-Jul-24 19:33N 38°54' E 002°39'1313.0
2014-Jul-24 18:33N 38°54' E 002°23'1312.8
2014-Jul-24 17:33N 38°54' E 002°06'1312.8
2014-Jul-24 16:33N 38°54' E 001°50'1312.7
2014-Jul-24 15:33N 38°54' E 001°33'5 0.2
2014-Jul-23 17:25N 38°54' E 001°27'0 0.0
2014-Jul-23 16:21N 38°54' E 001°27'4 4.7
2014-Jul-23 15:33N 38°54' E 001°32'1312.6
2014-Jul-23 14:32N 39°03' E 001°44'1312.8
2014-Jul-23 13:33N 39°14' E 001°51'1413.6
2014-Jul-23 12:31N 39°27' E 001°59'1111.8
2014-Jul-23 11:33N 39°37' E 002°05'1413.4
2014-Jul-23 10:32N 39°46' E 002°18'1111.7
2014-Jul-23 09:33N 39°55' E 002°28'1212.3
2014-Jul-23 08:33N 40°04' E 002°40'1212.4
2014-Jul-23 07:33N 40°12' E 002°51'1312.7
2014-Jul-23 06:33N 40°21' E 003°03'1312.9
2014-Jul-23 05:33N 40°31' E 003°14'1313.0
2014-Jul-23 04:32N 40°40' E 003°27'1612.8
2014-Jul-23 03:18N 40°51' E 003°42'1413.7
2014-Jul-23 02:18N 41°01' E 003°55'1415.6
2014-Jul-23 01:26N 41°10' E 004°07'1312.7
2014-Jul-23 00:25N 41°19' E 004°20'1515.0
2014-Jul-22 23:27N 41°30' E 004°33'1717.3
2014-Jul-22 22:27N 41°41' E 004°50'5516.9
2014-Jul-22 19:11N 42°21' E 005°42'1116.7
2014-Jul-22 18:33N 42°28' E 005°52'1716.7
2014-Jul-22 17:33N 42°40' E 006°08'1716.5
2014-Jul-22 16:33N 42°52' E 006°24'1817.7
2014-Jul-22 15:33N 43°05' E 006°40'1818.4
2014-Jul-22 14:33N 43°21' E 006°53'1312.4
2014-Jul-22 13:33N 43°32' E 007°01'0 0.0
2014-Jul-22 12:33N 43°32' E 007°01'0 0.0
2014-Jul-22 11:33N 43°32' E 007°01'0 0.0
2014-Jul-22 10:33N 43°32' E 007°01'0 0.0
2014-Jul-22 09:21N 43°32' E 007°01'0 0.0
2014-Jul-22 08:33N 43°32' E 007°01'0 0.0
2014-Jul-22 07:33N 43°32' E 007°01'0 0.0
2014-Jul-22 06:33N 43°32' E 007°01'0 0.0
2014-Jul-22 05:33N 43°32' E 007°01'4 3.9
2014-Jul-22 04:33N 43°28' E 007°03'10 9.9
2014-Jul-22 03:33N 43°30' E 007°17'10 9.8
2014-Jul-22 02:33N 43°32' E 007°30'55 8.8
2014-Jul-21 20:18N 43°59' E 008°36'0 9.6
2014-Jul-21 20:17N 43°59' E 008°36'810.4
2014-Jul-21 19:34N 44°05' E 008°42'1010.1
2014-Jul-21 18:34N 44°13' E 008°51'9 9.3
2014-Jul-21 17:33N 44°21' E 008°57'4 3.2
2014-Jul-21 16:18N 44°25' E 008°55'0 0.0
2014-Jul-21 15:30N 44°25' E 008°55'0 0.0
2014-Jul-21 14:33N 44°25' E 008°55'0 0.0
2014-Jul-21 13:21N 44°25' E 008°55'0 0.0
2014-Jul-21 11:33N 44°25' E 008°55'0 0.0
2014-Jul-21 10:09N 44°25' E 008°55'0 0.0
2014-Jul-21 09:33N 44°25' E 008°55'0 0.0
2014-Jul-21 07:30N 44°25' E 008°55'3 2.7
2014-Jul-21 06:33N 44°23' E 008°57'1616.2
2014-Jul-21 05:33N 44°08' E 009°07'1919.3
2014-Jul-21 04:33N 43°51' E 009°20'2019.7
2014-Jul-21 03:33N 43°34' E 009°33'1919.3
2014-Jul-21 02:34N 43°18' E 009°48'10519.3
2014-Jul-20 21:07N 41°55' E 011°15'1120.4
2014-Jul-20 20:33N 41°47' E 011°27'2120.3
2014-Jul-20 19:32N 41°33' E 011°47'1919.6
2014-Jul-20 18:33N 41°20' E 012°06'2219.4
2014-Jul-20 17:25N 41°05' E 012°28'1719.7
2014-Jul-20 16:32N 40°53' E 012°45'1919.3
2014-Jul-20 15:33N 40°46' E 013°07'1919.4
2014-Jul-20 14:33N 40°40' E 013°32'2019.7
2014-Jul-20 13:33N 40°34' E 013°57'1919.4
2014-Jul-20 12:33N 40°31' E 014°22'4 0.4
2014-Jul-20 03:22N 40°33' E 014°27'1519.1
2014-Jul-20 02:33N 40°31' E 014°07'1919.1
2014-Jul-20 01:33N 40°34' E 013°42'  

Dump ship's entire track history